www.pogodaiklimat.ru

Погода и климат >> Архив погоды >> Мьянма >> Thandwe


ПОГОДА в Thandwe

  • Прогноз погоды в Thandwe
  • Монитор погоды в Thandwe
  • Климат города

АРХИВ ПОГОДЫ в Thandwe

Время (UTC), дата Ветер
(напр.,м/с)
 
Видим.   Явления Облачность Т
(С)
Тd
(С)
f
(%)
Тe
(С)
Тes
(С)
Комфортность P
(гПа)
Po
(гПа)
Тmin
(С)
Tmax
(С)
R
(мм)
R24
(мм)
S
(см)
00 11.11 штиль 0 6000 м 9/5 300 м
[Cu Sc Ac As]
+24.0 +22.6 92 +31 +31 очень
душно
1011.1 1011.0 +19.0
03 11.11 штиль 0 10 км 8/5 600 м
[Cu Sc Ac As]
+27.0 +24.0 84 +37 +40 очень
душно
1013.0 1013.0
06 11.11 СВ 2 10 км 10/6 300 м
[Cu Sc Ac As]
+28.0 +25.0 84 +40 +42 очень
душно
1012.0 1012.0
09 11.11 штиль 0 10 км 9/6 300 м
[Cu Sc Ac As]
+31.0 +25.4 72 +45 +46 опасность
перегрева
1009.8 1010.0
12 11.11 7000 м слабая морось н/о +27.0 +25.6 92 +40 +40 очень
душно
1010.4 1010.0 +32.0
15 11.11 штиль 0 5000 м {морось} 10/6 300 м
[Cu Sc Ac As]
+26.0 +24.6 92 +37 +37 очень
душно
1011.8 1012.0
00 12.11 штиль 0 6000 м {дождь, морось} 10/6 300 м
[Cu Sc Ac As]
+23.0 +21.4 91 +31 +31 очень
душно
1010.3 1010.0 +18.6
03 12.11 штиль 0 10 км 8/5 600 м
[Cu Sc Ac trans]
+27.0 +24.0 84 +37 +41 очень
душно
1011.2 1011.0
06 12.11 ЮВ 1 11 км 10/6 600 м
[Cu Sc Ac As]
+31.5 +25.4 70 +46 +48 опасность
перегрева
1010.9 1011.0
09 12.11 штиль 0 10 км слабая морось 10/6 600 м
[Frnb Ac As]
+29.0 +25.9 83 +43 +44 опасность
перегрева
1009.3 1009.0
12 12.11 штиль 0 7000 м 9/6 600 м
[Cu Sc Ac As]
+28.0 +25.0 84 +40 +40 очень
душно
1009.0 1009.0 +32.2
15 12.11 штиль 0 5000 м 10/6 600 м
[Cu Sc Ac As]
+26.0 +24.6 92 +37 +37 очень
душно
1010.1 1010.0
00 13.11 штиль 0 6000 м {морось} 10/6 300 м
[Cu Sc Ac As]
+25.0 +23.3 90 +33 +33 очень
душно
1009.6 1010.0 +19.5
03 13.11 штиль 0 10 км 8/4 600 м
[Cu Sc Ac trans Cs]
+28.7 +24.8 79 +41 +45 опасность
перегрева
1010.7 1011.0
06 13.11 З 4 12 км 9/5 600 м
[Cu Sc Ac As]
+31.8 +28.1 81 +53 +55 опасность
перегрева
1009.2 1009.0
09 13.11 СЗ 4 12 км 8/4 600 м
[Cb cap Ac trans Cs]
+32.0 +26.5 73 +49 +50 опасность
перегрева
1007.1 1007.0
12 13.11 СВ 2 7000 м 10/6 600 м
[Cu Sc Ac As]
+28.0 +25.0 84 +40 +40 очень
душно
1008.0 1008.0 +33.5
15 13.11 штиль 0 5000 м 5/3 600 м
[Cu Sc Ac As]
+27.0 +24.0 84 +37 +37 очень
душно
1009.6 1010.0
00 14.11 штиль 0 6000 м 9/6 300 м
[Cu Sc Ac As]
+24.0 +22.6 92 +31 +31 очень
душно
1009.3 1009.0 +18.0
03 14.11 В 1 10 км 5/1 600 м
[Cu Sc Ac trans Cs]
+29.0 +24.8 78 +41 +47 опасность
перегрева
1011.3 1011.0
06 14.11 ЮЗ 4 12 км 8/3 600 м
[Cu Sc Ac As]
+33.5 +26.4 66 +50 +53 опасность
перегрева
1009.7 1010.0
09 14.11 З 3 11 км 9/3 600 м
[Cu Sc Ac As]
+32.0 +26.5 73 +49 +50 опасность
перегрева
1008.1 1008.0
12 14.11 штиль 0 7000 м 8/4 600 м
[Cu Sc Ac As]
+29.0 +24.8 78 +41 +41 опасность
перегрева
1009.0 1009.0 +34.5
15 14.11 штиль 0 5000 м 9/5 600 м
[Cu Sc Ac As]
+26.0 +24.6 92 +37 +37 очень
душно
1011.1 1011.0
00 15.11 штиль 0 6000 м 10/4 600 м
[Cu Sc Ac As]
+23.0 +21.4 91 +31 +31 очень
душно
1010.7 1011.0 +17.7
03 15.11 штиль 0 10 км 1/0
[Cs]
+29.0 +24.8 78 +41 +51 опасность
перегрева
1012.7 1013.0
06 15.11 н/о +33.4 +28.0 73 1011.0 1011.2
09 15.11 ЮЗ 5 12 км 1/1 600 м
[Cu Sc]
+33.8 +28.8 75 +57 +59 опасность
перегрева
1009.0 1009.0
12 15.11 штиль 0 7000 м 5/5 600 м
[Cu Sc]
+28.0 +25.0 84 +40 +40 очень
душно
1010.0 1010.0 +35.0
15 15.11 штиль 0 5000 м 3/3 600 м
[Cu Sc]
+26.0 +24.6 92 +37 +37 очень
душно
1011.7 1012.0
00 16.11 штиль 0 800 м туман на расстоянии 3/3 600 м
[Sc]
+22.0 +20.5 91 +28 +28 душно 1011.7 1012.0 +17.2
03 16.11 штиль 0 10 км {туман} ясно +28.0 +25.0 84 +40 +50 очень
душно
1012.2 1012.0
06 16.11 ЮЗ 5 12 км {туман} ясно +34.0 +27.0 67 +52 +59 опасность
перегрева
1010.6 1011.0
09 16.11 ЮЗ 3 12 км ясно +33.0 +23.4 57 +44 +48 опасность
перегрева
1008.8 1009.0
12 16.11 штиль 0 6000 м ясно +29.0 +24.8 78 +41 +41 опасность
перегрева
1009.7 1010.0
15 16.11 штиль 0 5000 м ясно +26.0 +24.6 92 +37 +37 очень
душно
1011.8 1012.0
00 17.11 штиль 0 6000 м 10/4 600 м
[Cu Sc Ac trans]
+21.0 +19.5 91 +25 +25 комфорт 1012.2 1012.0 +16.4
03 17.11 штиль 0 10 км 3/3 600 м
[Sc]
+26.0 +22.9 83 +35 +41 очень
душно
1012.8 1013.0
06 17.11 ЮЗ 2 12 км 3/3 600 м
[Cu med, cong]
+33.0 +25.8 66 +48 +58 опасность
перегрева
1010.7 1011.0
09 17.11 СЗ 2 12 км 4/4 600 м
[Cu Sc]
+33.0 +27.5 73 +52 +55 опасность
перегрева
1009.8 1010.0
12 17.11 штиль 0 7000 м 4/4 600 м
[Sc]
+30.0 +25.3 76 +44 +44 опасность
перегрева
1009.3 1009.0 +34.9
15 17.11 штиль 0 5000 м ясно +26.0 +24.6 92 +37 +37 очень
душно
1011.8 1012.0

 

Местоположение метеостанции Thandwe (Мьянма): широта 18.47 долгота 94.35 высота над уровнем моря 11 м.

В архиве по умолчанию представлена погода в Thandwe за последнюю неделю. Архивные данные за месяц целиком и за предыдущие месяцы, начиная с января 2011 года, Вы можете получить, выбрав интересующий диапазон дат из раскрывающегося списка и нажав кнопку "Ввод!".


*Определитесь, кто Вы:
робот инопланетянин человек

Внимание! Время в таблицах - всемирное. Для получения местного времени необходимо прибавить поправку, которая в Thandwe равна 6.5 ч.

Смотрите также архив погоды в соседних городах и на ближайших метеорологических станциях:

Погода в Manaung (Мьянма) (78 км)
Погода в Prome (Мьянма) (99 км)
Погода в Gwa (Мьянма) (102 км)
Погода в Kyaukpyu (Мьянма) (135 км)
Погода в Henzada (Мьянма) (144 км)
Погода в Pathein (Мьянма) (194 км)
Погода в Minbu (Мьянма) (197 км)
Погода в Magway (Мьянма) (197 км)
Погода в Toungoo (Мьянма) (229 км)
Погода в Hmawbi (Мьянма) (234 км)

Пояснения к столбцам:

Ветер - указаны скорость ветра в м/с - средняя за 10 мин, порывы в срок и между сроками (в фигурных скобках) и направление, откуда дует ветер: С - северный, СВ - северо-восточный, В - восточный, ЮВ - юго-восточный, Ю - южный, ЮЗ - юго-западный, З - западный, СЗ - северо-западный.
Видимость - горизонтальная дальность видимости в метрах или километрах. При видимости от 1 до 10 км при отсутствии осадков обычно наблюдается дымка, при ухудшении видимости до 1 км и менее - туман. В сухую погоду видимость может ухудшаться дымом, пылью или мглою.
Явления - указаны атмосферные явления, наблюдавшиеся в срок или в последний час перед сроком; фигурными скобками обозначены явления, наблюдавшиеся между сроками (за 1-3 часа до срока); квадратными скобками обозначены град или гололедные отложения с указанием их диаметра в мм.
Облачность - указаны через наклонную черту общая и нижняя облачность в баллах и высота нижней границы облаков в метрах; квадратными скобками обозначены формы облаков: Ci - перистые, Cs - перисто-слоистые, Cc - перисто-кучевые, Ac - высококучевые, As - высокослоистые, Sc - слоисто-кучевые, Ns - слоисто-дождевые, Cu - кучевые, Cb - кучево-дождевые. Подробнее классификацию облаков см. в Атласе облаков (PDF).
T - Температура воздуха - температура, измеренная на высоте 2 м над землей.
Td - Температура точки росы - температура, при понижении до которой содержащийся в воздухе водяной пар достигнет насыщения.
f - Относительная влажность воздуха - влажноcть воздуха, измеренная на высоте 2 м над землей.
Te - Эффективная температура - температура, которую ощущает одетый по сезону человек в тени. Характеристика душности погоды. При расчете учитывается влияние влажности воздуха и скорости ветра на теплоощущения человека.
Tes - Эффективная температура на солнце - температура, которую ощущает человек, с поправкой на солнечный нагрев. Характеристика знойности погоды. Зависит от высоты солнца над горизонтом, облачности и скорости ветра. Ночью, в пасмурную погоду, а также при ветре 12 м/с и более поправка равна нулю.
P - Атмосферное давление - приведенное к уровню моря атмосферное давление.
Po - Атмосферное давление - измеренное на уровне метеостанции атмосферное давление.
Tmin - Минимальная температура - минимум температуры воздуха на высоте 2 м над землей.
Tmax - Максимальная температура - максимум температуры воздуха на высоте 2 м над землей.
R - Количество осадков - Количество выпавших осадков за период времени, мм. При наведении курсора мыши на число - период времени, за который выпало указанное количество осадков.
R24 - Количество осадков - Количество выпавших осадков за 24 часа, мм.
S - Снежный покров - Высота снежного покрова, см. При наведении курсора мыши на число - состояние снежного покрова и степень покрытия местности в баллах.